arxmliv
arxmliv build tool
 
KWARC group
LaTeXML
About
   
 

Detailed info

Back to Homepage

List of missing_macros

No. Date Filename num_warningnum_errornum_xmargok_xmargnum_xmathok_xmathMissing macros
46601 2013-04-09 15:12:19 /1005/1005.4193 2180000[\drrto, \enddiagram, Align, \drto, \dto, \rto, \diagram, \rrto].
46602 2013-04-09 15:12:07 /1005/1005.4200 480000[{IEEEkeywords}, \IEEEPARstart, \IEEEpeerreviewmaketitle, \ifCLASSOPTIONcaptionsoff, \ifCLASSINFOpdf]; 1 missing file[IEEEtran.cls].
46603 2013-04-09 15:12:02 /1005/1005.4187 5140000[Align, \xymatrix, \ar]; 1 missing file[xy.sty].
46604 2013-04-09 15:11:57 /1005/1005.4194 3150000[Align, \xymatrix, \ar, \CompileMatrices]; 1 missing file[xy.sty].
46605 2013-04-09 15:11:52 /1005/1005.4207 77230000[\pacs, \shorttitle, \institute]; 1 missing file[epl2.cls].
46606 2013-04-09 15:11:43 /1005/1005.4186 520000[\PACS]; 1 missing file[size11.clo.sty].
46607 2013-04-09 15:11:34 /1005/1005.4170 4330000[\TCItag, \tprod, \tbigoplus].
46608 2013-04-09 15:11:26 /1005/1005.4191 230000[\layoutstyle, \classification]; 1 missing file[{aipcheck}].
46609 2013-04-09 15:11:23 /1005/1005.4179 170000[\pacs, \inst, \shorttitle, \shortauthor, \institute, \acknowledgments, \etal]; 1 missing file[epl2.cls].
46610 2013-04-09 15:11:11 /1005/1005.4152 3450000[Align, \xymatrix, \geometry, \ar]; 1 missing file[xy.sty].
46611 2013-04-09 15:11:08 /1005/1005.4150 5190000[\endxy, Align, \xyoption, \UseCrayolaColors, \htmladdnormallink, \xymatrix, \xy, \ar]; 1 missing file[xy.sty].
46612 2013-04-09 15:10:48 /1005/1005.4151 27810000[\endxy, Align, \xyoption, \UseCrayolaColors, \xymatrix, \xy, \ar]; 1 missing file[xy.sty].
46613 2013-04-09 15:10:45 /1005/1005.4165 310000[\cortext].
46614 2013-04-09 15:10:26 /1005/1005.4158 1330000[\CJKfamily, {CJK*}]; 1 missing file[CJK.sty].
46615 2013-04-09 15:10:23 /1005/1005.4148 1250000[Align, \psfrag, \xymatrix, \ar]; 1 missing file[xy.sty].
46616 2013-04-09 15:10:14 /1005/1005.4146 4810000[{comment}].
46617 2013-04-09 15:09:53 /1005/1005.4147 1620000[\chapauthor]; 1 missing file[type1cm.sty].
46618 2013-04-09 15:09:37 /1005/1005.4149 720000[@ , \psfrag].
46619 2013-04-09 15:09:10 /1005/1005.4138 4220000[\dsum, \dint].
46620 2013-04-09 15:09:01 /1005/1005.4118 14380000[{algorithm}, \st, \KwIn, \bw, \by, \card, \savedalgorithm, \etal, \bx, \bm, \bu, \mathbb, \KwOut, \savedendalgorithm, \SetVline, \maximize, \IEEEPARstart, \bX, \bq, \bv, \eg, \IEEEmembership, \T, \KwGiven, \ForEach, \linesnumbered, \While, \bp, \cN, \Set
46621 2013-04-09 15:08:42 /1005/1005.4083 18020000[{shaded}]; 1 missing file[framed.sty].
46622 2013-04-09 15:08:39 /1005/1005.4125 61120000[Align, \xymatrix, \ar]; 9 missing files[xycurve.sty, xymatrix.sty, xyline.sty, xyarrow.sty, xycmtip.sty, xycolor.sty, xyrotate.sty, xyframe.sty, xygraph.sty].
46623 2013-04-09 15:08:39 /1005/1005.4133 160000[\PACSes, \ETC, \acknowledgments, \PACSit, \instlist, \from].
46624 2013-04-09 15:08:22 /1005/1005.4124 34130000[\authortwo, {lemma}, {ex}, \ams, \addressthree, \authorone, \addressone, \authornames, \shorttitle, {corollary}, \addresstwo, {proposition}, \authorthree].
46625 2013-04-09 15:08:17 /1005/1005.4075 38630000[\mathds, \textswab]; 1 missing file[tensor.sty].
46626 2013-04-09 15:08:08 /1005/1005.4084 7220000[\mathds, {comment}].
46627 2013-04-09 15:08:06 /1005/1005.4107 32480000[\bnote, \printhistory, \doi, \syear, \volume, \bid, \address, \bfnm, \operatorname, \aid, \byear, \corref, \firstpage, \endbibitem, \received, \kwd, \bauthor, \snm, \btitle, \smonth, {aug}, \issue, \bsnm, \runauthor, \binits, {frontmatter}, \AND, {bartic
46628 2013-04-09 15:08:02 /1005/1005.4115 020000[\nicefrac, \normalem].
46629 2013-04-09 15:07:40 /1005/1005.4096 140000[\extrasenglish, \geometry, \dateenglish, \captionsenglish].
46630 2013-04-09 15:07:35 /1005/1005.4097 1020000[\affil]; 1 missing file[authblk.sty].
46631 2013-04-09 15:07:27 /1005/1005.4088 1620000[\fnref, \fntext].
46632 2013-04-09 15:07:17 /1005/1005.4089 3620000[\astrosun, \earth].
46633 2013-04-09 15:07:10 /1005/1005.4101 140000[Align, \xymatrix, \ar]; 1 missing file[xy.sty].
46634 2013-04-09 15:07:01 /1005/1005.4056 10810000[\ij].
46635 2013-04-09 15:06:50 /1005/1005.4099 010000[\captionsfrancais].
46636 2013-04-09 15:06:46 /1005/1005.4103 780000[\For, \KwIn, {algorithm}, \KwOut, \SetVline, \linesnumbered]; 1 missing file[dblfloatfix.sty].
46637 2013-04-09 15:06:35 /1005/1005.4087 2110000[\smaller].
46638 2013-04-09 15:06:20 /1005/1005.4066 2130000[\colhead, \tablenotetext, \tablehead, \tablecolumns, \tablewidth, \tabletypesize, {deluxetable}, \startdata, Align, \tablecaption, \tablenotemark, \enddata]; 1 missing file[deluxetable.sty].
46639 2013-04-09 15:06:10 /1005/1005.4067 640000[{pf}, \address, {frontmatter}, {keyword}]; 1 missing file[ifacconf.cls].
46640 2013-04-09 15:05:58 /1005/1005.4093 030000[\extrasenglish, \dateenglish, \captionsenglish].
46641 2013-04-09 15:05:52 /1005/1005.4079 030000[\extrasenglish, \dateenglish, \captionsenglish].
46642 2013-04-09 15:05:46 /1005/1005.4033 6840000[\For, {algorithm}].
46643 2013-04-09 15:05:33 /1005/1005.4024 2520000[\psfrag]; 1 missing file[tocloft.sty].
46644 2013-04-09 15:05:13 /1005/1005.3998 28220000[\Photon, {sideways}, \midrule, \cancel, \Text, \ArrowLine, \Vertex, \cmidrule, \cellcolor, \DashLine, \toprule, \rowcolor, \bottomrule]; 1 missing file[colordvi.sty].
46645 2013-04-09 15:04:41 /1005/1005.4062 1410000[\listfiles].
46646 2013-04-09 15:04:23 /1005/1005.4011 11380000[\printhistory, \doi, \syear, \mathfrak, \volume, \address, \dvtx, \aid, \hyperref, \corref, \firstpage, {hyp}, \received, \kwd, \mathbb, \snm, \smonth, {aug}, \issue, \runauthor, \revised, {frontmatter}, {longlist}, \runtitle, {pf*}, {remark}, \pubyear,
46647 2013-04-09 15:04:18 /1005/1005.4041 3040000[\sectionfont, \subsubsectionfont, \subsectionfont]; 1 missing file[sectsty.sty].
46648 2013-04-09 15:04:11 /1005/1005.4047 030000[\affil, \lambdabar]; 1 missing file[authblk.sty].
46649 2013-04-09 15:03:51 /1005/1005.3968 6920000[\address]; 1 missing file[sbc-template.sty].
46650 2013-04-09 15:03:43 /1005/1005.4007 760000[Align, {mmatrix}]; 1 missing file[nccmath.sty].
46651 2013-04-09 15:03:33 /1005/1005.3922 14330000[\mathds, \rrbracket, \llbracket].
46652 2013-04-09 15:03:33 /1005/1005.4006 690000[\citeauthoryear, \citeyear, \subfloat, \category, \url, \citeN, \terms, {bottomstuff}, \keywords]; 1 missing file[acmtrans2m_a.cls].
46653 2013-04-09 15:03:16 /1005/1005.3993 2970000[\enddiagram, Align, \xyoption, \dto, \rto, \diagram]; 1 missing file[xy.sty].
46654 2013-04-09 15:02:56 /1005/1005.3982 5820000[\twoheaddownarrow]; 1 missing file[MnSymbol.sty].
46655 2013-04-09 15:02:46 /1005/1005.3955 4840000[{rotate}, \institute, \etal]; 2 missing files[cernyrep.cls, texnames.sty].
46656 2013-04-09 15:01:45 /1005/1005.3959 110000[\linenumbers].
46657 2013-04-09 15:01:37 /1005/1005.3910 8430000[\mathds, \rrbracket, \llbracket].
46658 2013-04-09 15:01:24 /1005/1005.3945 840000[Align, \xymatrix, \ar]; 1 missing file[xy.sty].
46659 2013-04-09 15:00:47 /1005/1005.3948 760000[\includegraphics, \ShortTitle, \email, \FullConference, \acknowledgments, \speaker]; 1 missing file[PoS.cls].
46660 2013-04-09 15:00:36 /1005/1005.3951 020000[Align, \biboptions].
46661 2013-04-09 15:00:24 /1005/1005.3909 22140000[\text]; 1 missing file[apjfonts.sty].
46662 2013-04-09 15:00:23 /1005/1005.3938 220000[\tablebib, \varv].
46663 2013-04-09 15:00:18 /1005/1005.3919 030000[\restoresymbol, \savesymbol]; 1 missing file[savesym.sty].
46664 2013-04-09 15:00:16 /1005/1005.3939 170000[\editors, \affiliation, \jname, \pagerange, \keywords, \volume, \pubyear]; 1 missing file[iaus.cls].
46665 2013-04-09 15:00:07 /1005/1005.3920 3120000[\citeauthoryear, \citeyear, \surname, \institute, \runningtitle, {opening}, {article}, \keywords, \shortcite, \runningauthor, \citeauthor]; 2 missing files[spr-sola-addons.sty, SolarPhysics.cls].
46666 2013-04-09 14:59:50 /1005/1005.3924 110000[\onlfig].
46667 2013-04-09 14:59:28 /1005/1005.3918 050000[{theacknowledgments}, \layoutstyle, \classification]; 2 missing files[aas_macros.sty, boxedminipage.sty].
46668 2013-04-09 14:59:27 /1005/1005.3915 130000[\theappendix, \onlfig, \onltab].
46669 2013-04-09 14:59:25 /1005/1005.3913 140000[\subjclassyear, \rmfam, \hexnumber@].
46670 2013-04-09 14:59:13 /1005/1005.3877 2240000[Align, \xymatrix, \ar]; 1 missing file[xy.sty].
46671 2013-04-09 14:59:12 /1005/1005.3886 19120000[Align, \xymatrix, \ar]; 9 missing files[xycurve.sty, xymatrix.sty, xyline.sty, xyarrow.sty, xycmtip.sty, xycolor.sty, xyrotate.sty, xyframe.sty, xygraph.sty].
46672 2013-04-09 14:59:10 /1005/1005.3899 010000[\theappendix].
46673 2013-04-09 14:59:00 /1005/1005.3876 6320000[\CompileMatrices]; 1 missing file[xy.sty].
46674 2013-04-09 14:58:59 /1005/1005.3902 2470000[\synttree, \branchheight, \evnup, \enumsentence, \geometry]; 2 missing files[lingmacros.sty, tipa.sty].
46675 2013-04-09 14:58:57 /1005/1005.3842 4580000[Align, \xyoption, \xymatrix, \ar]; 1 missing file[xy.sty].
46676 2013-04-09 14:58:44 /1005/1005.3838 6580000[Align, \xyoption, \psfrag, \xymatrix, \ar]; 1 missing file[xy.sty].
46677 2013-04-09 14:58:07 /1005/1005.3894 5160000[\GBox, \Line, \mathds, \unit, \SetColor, \Black, \Vertex, \Text, \DashBezier, \SetWidth, \Bezier, \GOval, \ZigZag, \Gluon]; 2 missing files[flafter.sty, axodraw4j.sty].
46678 2013-04-09 14:58:04 /1005/1005.3889 010000[\subfloat].
46679 2013-04-09 14:57:15 /1005/1005.3864 810000[\tablebib].
46680 2013-04-09 14:57:14 /1005/1005.3885 210000[{keywords}]; 1 missing file[basi.cls].
46681 2013-04-09 14:57:13 /1005/1005.3874 1110000[\theappendix].
46682 2013-04-09 14:56:46 /1005/1005.3858 1550000[{sidewaystable}, \hdashline, \cortext].
46683 2013-04-09 14:56:00 /1005/1005.3839 620000[Align, \biboptions].
46684 2013-04-09 14:55:50 /1005/1005.3807 17240000[\dlto, \urto, \dto, \rto, \diagram, \uto, Align, \enddiagram, \drto, \rrto].
46685 2013-04-09 14:55:44 /1005/1005.3849 760000[\includegraphics, \ShortTitle, \email, \FullConference, \pos, \speaker]; 1 missing file[PoS.cls].
46686 2013-04-09 14:55:36 /1005/1005.3851 010000[\ack].
46687 2013-04-09 14:55:31 /1005/1005.3834 0300000[\citeauthoryear, \affil, \apj, \citep, \apjl, \solphys, \acknowledgements]; 1 missing file[asp2006.sty].
46688 2013-04-09 14:55:11 /1005/1005.3831 830000[\extrasenglish, \dateenglish, \captionsenglish].
46689 2013-04-09 14:54:44 /1005/1005.3809 2830000[\setcaptionmargin, \apprge, \apprle].
46690 2013-04-09 14:54:37 /1005/1005.3565 445430000[\nouppercase].
46691 2013-04-09 14:54:32 /1005/1005.3819 220000[\includegraphics]; 1 missing file[ol2.sty].
46692 2013-04-09 14:54:30 /1005/1005.3820 010000[\tablebib].
46693 2013-04-09 14:54:28 /1005/1005.3821 2020000[\onlfig, \onltab].
46694 2013-04-09 14:54:27 /1005/1005.3787 4940000[Align, \xymatrix, \ar]; 1 missing file[xy.sty].
46695 2013-04-09 14:54:16 /1005/1005.3810 130000[\affiliation, \degree]; 1 missing file[gensymb.sty].
46696 2013-04-09 14:54:09 /1005/1005.3791 4710000[\affiliation].
46697 2013-04-09 14:53:30 /1005/1005.3770 1010000[\theappendix].
46698 2013-04-09 14:53:10 /1005/1005.3784 010000[\onlfig].
46699 2013-04-09 14:53:07 /1005/1005.3769 030000[\extrasenglish, \dateenglish, \captionsenglish].
46700 2013-04-09 14:52:56 /1005/1005.3765 1810000[\@end@institute].
46701 2013-04-09 14:52:40 /1005/1005.3752 55490000[Align, \xymatrix, \ar]; 1 missing file[xy.sty].
46702 2013-04-09 14:52:24 /1005/1005.3757 5100000[\Book, {acknowledgments}, \pacs, \inst, \shortauthor, \institute, \Publ, \Name, \Year, \REVIEW]; 1 missing file[epl2.cls].
46703 2013-04-09 14:52:13 /1005/1005.3732 9340000[Align, \xymatrix, \ar]; 1 missing file[xy.sty].
46704 2013-04-09 14:51:57 /1005/1005.3768 130000[\includepdf]; 1 missing file[pdfpages.sty].
46705 2013-04-09 14:51:32 /1005/1005.3729 4120000[\psfrag, {proof}]; 1 missing file[IEEEtran.cls].
46706 2013-04-09 14:50:59 /1005/1005.3731 746370000[\citeauthoryear, \rTo, \rrbracket, \terms, {bottomstuff}, \keywords, \dTo, Align, \category, \infer, {proof}, {diagram}, \llbracket]; 1 missing file[acmtrans2m.cls].
46707 2013-04-09 14:49:27 /1005/1005.3702 410000[\theappendix].
46708 2013-04-09 14:49:23 /1005/1005.3719 110000[\theappendix].
46709 2013-04-09 14:49:06 /1005/1005.3717 440000[\smaller].
46710 2013-04-09 14:48:23 /1005/1005.3708 410000[\nicefrac].
46711 2013-04-09 14:48:22 /1005/1005.3695 670000[\sectionfont, \balance, \subsectionfont]; 4 missing files[lastpage.sty, mhchem.sty, balance.sty, sectsty.sty].
46712 2013-04-09 14:48:17 /1005/1005.3696 1210000[\geometry].
46713 2013-04-09 14:48:05 /1005/1005.3685 790000[\apjs, \mnras, \apj, \aj, \pasj, \apjl, \araa, \nat]; 1 missing file[aas_macros.sty].
46714 2013-04-09 14:47:50 /1005/1005.3678 7170000[{lemma}, {theorem}, \pdfbookmark, \LastPageEnding, \Classification, {example}, \AuthorNameForHeading, \Abstract, \ArticleName, \ShortArticleName, \FirstPageHeading, \Address, \Author, {definition}, \Email, {corollary}, \Keywords].
46715 2013-04-09 14:47:40 /1005/1005.3680 16400000[\pacs, \inst, \shorttitle, \shortauthor, \institute, \onefigure, \etal]; 1 missing file[epl2.cls].
46716 2013-04-09 14:47:26 /1005/1005.3682 160000[\includegraphics, \catchline, {history}, \keywords, \received]; 1 missing file[ws.sty].
46717 2013-04-09 14:47:22 /1005/1005.3677 17330000[\dTo, Align, \ruTo, \rTo, {diagram}].
46718 2013-04-09 14:47:20 /1005/1005.3687 2140000[{IEEEkeywords}, \IEEEPARstart, \IEEEpeerreviewmaketitle, \IEEEmembership]; 1 missing file[IEEEtran.cls].
46719 2013-04-09 14:47:17 /1005/1005.3684 0130000[\Issue, \apj, \inst, \Month, \institute, \Yearsubmission, \Volume, \Yearpublication, \Pagespan, \email, \titlerunning, \fnmsep, \authorrunning].
46720 2013-04-09 14:46:46 /1005/1005.3654 8370000[\yng, Align, \xymatrixcolsep, \xymatrix, \young, \ar]; 1 missing file[xy.sty].
46721 2013-04-09 14:45:49 /1005/1005.3649 45910000[\theappendix].
46722 2013-04-09 14:45:40 /1005/1005.3623 7650000[Align, \xyoption, \SelectTips, \xymatrix, \ar].
46723 2013-04-09 14:45:32 /1005/1005.3638 3830000[\theappendix].
46724 2013-04-09 14:45:18 /1005/1005.3652 040000[\extrasenglish, \dateenglish, \captionsenglish]; 1 missing file[esint.sty].
46725 2013-04-09 14:44:27 /1005/1005.3596 10060000[\default@tag, \Let@, \restore@math@cr].
46726 2013-04-09 14:44:08 /1005/1005.3625 110000[\cortext].
46727 2013-04-09 14:43:57 /1005/1005.3629 21350000[\includegraphics, \ShortTitle, \email, \FullConference, \speaker]; 1 missing file[Pos.cls].
46728 2013-04-09 14:43:50 /1005/1005.3632 1010000[\mathinner].
46729 2013-04-09 14:43:06 /1005/1005.3622 120000[\mathbbold]; 1 missing file[mathbbold.sty].
46730 2013-04-09 14:42:57 /1005/1005.3608 3690000[Align, \mathds, {dcases}, \prescript, \biboptions]; 2 missing files[mathtools.sty, microtype.sty].
46731 2013-04-09 14:41:48 /1005/1005.3564 11040000[Align, \xymatrix, \ar]; 1 missing file[xy.sty].
46732 2013-04-09 14:41:43 /1005/1005.3597 1310000[\nicefrac].
46733 2013-04-09 14:41:41 /1005/1005.3599 510000[\citeauthoryear].
46734 2013-04-09 14:41:27 /1005/1005.3548 62410000[\theappendix].
46735 2013-04-09 14:41:24 /1005/1005.3573 810000[\subfloat].
46736 2013-04-09 14:41:21 /1005/1005.3587 010000[\bottomrule].
46737 2013-04-09 14:41:16 /1005/1005.3584 2320000[\bra, \ket].
46738 2013-04-09 14:41:07 /1005/1005.3591 3100000[\surname, \institute, \runningtitle, {opening}, {article}, \keywords, \sep, \runningauthor, \acknowledgements]; 2 missing files[spr-sola-addons.sty, SolarPhysics.cls].
46739 2013-04-09 14:41:03 /1005/1005.3585 110000[\young].
46740 2013-04-09 14:40:14 /1005/1005.3515 3420000[\theappendix]; 1 missing file[stackrel.sty].
46741 2013-04-09 14:39:26 /1005/1005.3545 910000[\theappendix].
46742 2013-04-09 14:39:22 /1005/1005.3521 1610000[\citen].
46743 2013-04-09 14:39:19 /1005/1005.3539 14270000[\psfig, {itemlist}, \tbl, \keywords, \colrule, \bodymatter, \botrule, \toprule]; 1 missing file[ws.sty].
46744 2013-04-09 14:39:01 /1005/1005.3544 1290000[\vs, \ups, \zdot, \refitem, {Titlepage}, \arcd, \eg, \SetPages, {references}, \Section, \etal, \ApJ, \Abstract, \Acta, \MakeTable, \upm, \Author, \Received, Align, \MNRAS, \SetVol, \uph, \arcs, \FigCap, \nofiles, \arcm, \Title, \Acknow, \ie]; 1 missing f
46745 2013-04-09 14:39:00 /1005/1005.3525 220000[\theappendix].
46746 2013-04-09 14:38:28 /1005/1005.3533 2440000[\ack, \mr, \br, \ead].
46747 2013-04-09 14:38:20 /1005/1005.3517 1220000[\fnref, \fntext].
46748 2013-04-09 14:37:48 /1005/1005.3504 1710000[{comment}].
46749 2013-04-09 14:37:25 /1005/1005.3502 010000[\setdescription].
46750 2013-04-09 14:37:25 /1005/1005.3503 660000[\includegraphics, \ShortTitle, \email, \FullConference, \acknowledgments, \speaker]; 1 missing file[PoS.cls].
46751 2013-04-09 14:37:18 /1005/1005.3445 20820000[\mathds].
46752 2013-04-09 14:37:01 /1005/1005.3496 0300000[\apj, \inst, \accepted, \Month, \pasj, \apjl, \aap, \nat, \element, \publonline, \DOI, \email, \pasp, \object, \titlerunning, \fnmsep, \araa, \authorrunning, \received, \Issue, \aj, \apss, \Yearsubmission, \institute, \Yearpublication, \Volume, \mnras, \
46753 2013-04-09 14:36:59 /1005/1005.3473 2780000[\thechapter, {certificate}, \department, \@currentID, \singlespace, \thesis, \iitbdegree, {acknowledgement}]; 1 missing file[iitbthesis.cls].
46754 2013-04-09 14:36:47 /1005/1005.3500 310000[\tablebib].
46755 2013-04-09 14:36:27 /1005/1005.3486 530000[\overrideIEEEmargins, \IEEEoverridecommandlockouts, {proof}].
46756 2013-04-09 14:36:08 /1005/1005.3485 030000[\SI, \mathinner]; 1 missing file[siunitx.sty].
46757 2013-04-09 14:36:03 /1005/1005.3484 990000[\dlto, \lto, \rto, \xymatrix, \xyoption, Align, \drto, \rrto]; 1 missing file[xy.sty].
46758 2013-04-09 14:35:49 /1005/1005.3490 410000[\cortext].
46759 2013-04-09 14:35:46 /1005/1005.3471 410000[\subfiglabelskip].
46760 2013-04-09 14:35:44 /1005/1005.3472 090000[{tablenotes}, \tnote, \cmidrule, \astrosun, \toprule, \bottomrule, {threeparttable}]; 1 missing file[threeparttable.sty].
46761 2013-04-09 14:35:27 /1005/1005.3461 020000[{comment}]; 1 missing file[spr-astr-addons-fixed2.sty].
46762 2013-04-09 14:35:21 /1005/1005.3454 15210000[\synctex].
46763 2013-04-09 14:35:08 /1005/1005.3414 85710000[\apprle].
46764 2013-04-09 14:34:29 /1005/1005.3450 220000[\authaddr, \authname]; 1 missing file[usetex-v1.cls].
46765 2013-04-09 14:34:21 /1005/1005.3455 8810000[\slashed].
46766 2013-04-09 14:34:19 /1005/1005.3437 71270000[\titulo, \inst, \autor, \autores, \institute]; 1 missing file[semina_tech-b.sty].
46767 2013-04-09 14:34:18 /1005/1005.3438 220000[{landscape}]; 1 missing file[pdflscape.sty].
46768 2013-04-09 14:34:02 /1005/1005.3435 030000[\extrasenglish, \dateenglish, \captionsenglish].
46769 2013-04-09 14:33:46 /1005/1005.3436 030000[\extrasenglish, \dateenglish, \captionsenglish].
46770 2013-04-09 14:33:11 /1005/1005.3429 210000[\mathds].
46771 2013-04-09 14:33:06 /1005/1005.3421 53130000[\psaxes]; 12 missing files[xycurve.sty, xymatrix.sty, xyline.sty, xyarrow.sty, xycmtip.sty, xycolor.sty, xyrotate.sty, xy.sty, xyframe.sty, xygraph.sty, pst-func.sty, pst-fill.sty].
46772 2013-04-09 14:32:58 /1005/1005.3433 010000[\psfrag].
46773 2013-04-09 14:32:56 /1005/1005.3413 140000[{acknowledgments}, \pacs, \email, \affiliation]; 1 missing file[jasatex.cls].
46774 2013-04-09 14:32:50 /1005/1005.3412 630000[\fancyplain, \footrulewidth, \headrulewidth].
46775 2013-04-09 14:32:42 /1005/1005.3399 3510000[\slashed].
46776 2013-04-09 14:32:20 /1005/1005.3401 2220000[\PACS]; 1 missing file[size11.clo.sty].
46777 2013-04-09 14:32:15 /1005/1005.3396 95230000[\xspace, \ifzbstpl, \lesssim, \makezeustitle, \ifzbstnp, \ifzbstepj, \prepnum, \ifzdrftbst, \includegraphics, \ifzeusbst, {sidewaystable}, \text]; 1 missing file[zeus_paper.cls].
46778 2013-04-09 14:31:56 /1005/1005.3391 890000[\IEEEauthorblockA, \IEEEauthorblockN, \IEEEauthorrefmark]; 1 missing file[IEEEtran.cls].
46779 2013-04-09 14:31:46 /1005/1005.3338 13850000[{keywords}, \IEEEaftertitletext, \IEEEoverridecommandlockouts, \appendices, {proof}]; 1 missing file[IEEEtran.cls].
46780 2013-04-09 14:31:46 /1005/1005.3379 23320000[\dint, \harvardparenthesis, \harvarditem, \citeasnoun, \harvardyearparenthesis, \citationmode]; 1 missing file[numinsec.sty].
46781 2013-04-09 14:31:41 /1005/1005.3380 1410000[\subfloat].
46782 2013-04-09 14:31:16 /1005/1005.3387 1810000[\listfiles].
46783 2013-04-09 14:30:48 /1005/1005.3377 170000[\inst, \titlerunning, \institute, \normalem, \authorrunning, {acknowledgements}, \keywords]; 1 missing file[raa.cls].
46784 2013-04-09 14:30:44 /1005/1005.3288 156100000[\theappendix, \smaller, {sidewaystable*}].
46785 2013-04-09 14:30:40 /1005/1005.3369 010000[\ead].
46786 2013-04-09 14:30:34 /1005/1005.3378 3630000[\kword, \abst, \inst]; 1 missing file[jpsj3.cls].
46787 2013-04-09 14:30:27 /1005/1005.3347 380000[\square, \address, \thechapter, \@currentID, \printindex, \body]; 2 missing files[ws-rv-van.sty, ws.sty].
46788 2013-04-09 14:30:24 /1005/1005.3361 320000[\UseComputerModernTips]; 1 missing file[xy.sty].
46789 2013-04-09 14:30:22 /1005/1005.3360 0150000[\Issue, \inst, \accepted, \Month, \institute, \Yearsubmission, \Volume, \Yearpublication, \Pagespan, \email, \titlerunning, \fnmsep, \acknowledgements, \authorrunning, \received].
46790 2013-04-09 14:30:19 /1005/1005.3363 370000[\includegraphics, \catchline, {history}, \boldsymbol, \text, \keywords]; 1 missing file[ws.sty].
46791 2013-04-09 14:30:17 /1005/1005.3358 270000[\includegraphics, \ShortTitle, \email, \FullConference, \speaker]; 1 missing file[PoS.cls].
46792 2013-04-09 14:30:12 /1005/1005.3366 140000[\includegraphics, \ocis, \address]; 1 missing file[osajnl2.sty].
46793 2013-04-09 14:29:52 /1005/1005.3325 210000[\cortext].
46794 2013-04-09 14:29:50 /1005/1005.3340 710000[\bezier].
46795 2013-04-09 14:29:43 /1005/1005.3309 4810000[\geometry].
46796 2013-04-09 14:29:42 /1005/1005.3353 140000[\ShortTitle, \email, \FullConference, \speaker]; 1 missing file[PoS.cls].
46797 2013-04-09 14:29:33 /1005/1005.3337 020000[\@end@institute]; 1 missing file[type1cm.sty].
46798 2013-04-09 14:29:23 /1005/1005.3339 0110000[\psfig, \epsfig, \citet, \bodymatter, \keywords]; 1 missing file[ws.sty].
46799 2013-04-09 14:29:15 /1005/1005.3335 930000[\geometry]; 2 missing files[pict2e.sty, xy.sty].
46800 2013-04-09 14:29:13 /1005/1005.3344 140000[\includegraphics, \kword, \abst, \inst]; 1 missing file[jjap2.cls].
<<< >>>

[0] [200] [400] [600] [800] [1000] [1200] [1400] [1600] [1800] [2000] [2200] [2400] [2600] [2800] [3000] [3200] [3400] [3600] [3800] [4000] [4200] [4400] [4600] [4800] [5000] [5200] [5400] [5600] [5800] [6000] [6200] [6400] [6600] [6800] [7000] [7200] [7400] [7600] [7800] [8000] [8200] [8400] [8600] [8800] [9000] [9200] [9400] [9600] [9800] [10000] [10200] [10400] [10600] [10800] [11000] [11200] [11400] [11600] [11800] [12000] [12200] [12400] [12600] [12800] [13000] [13200] [13400] [13600] [13800] [14000] [14200] [14400] [14600] [14800] [15000] [15200] [15400] [15600] [15800] [16000] [16200] [16400] [16600] [16800] [17000] [17200] [17400] [17600] [17800] [18000] [18200] [18400] [18600] [18800] [19000] [19200] [19400] [19600] [19800] [20000] [20200] [20400] [20600] [20800] [21000] [21200] [21400] [21600] [21800] [22000] [22200] [22400] [22600] [22800] [23000] [23200] [23400] [23600] [23800] [24000] [24200] [24400] [24600] [24800] [25000] [25200] [25400] [25600] [25800] [26000] [26200] [26400] [26600] [26800] [27000] [27200] [27400] [27600] [27800] [28000] [28200] [28400] [28600] [28800] [29000] [29200] [29400] [29600] [29800] [30000] [30200] [30400] [30600] [30800] [31000] [31200] [31400] [31600] [31800] [32000] [32200] [32400] [32600] [32800] [33000] [33200] [33400] [33600] [33800] [34000] [34200] [34400] [34600] [34800] [35000] [35200] [35400] [35600] [35800] [36000] [36200] [36400] [36600] [36800] [37000] [37200] [37400] [37600] [37800] [38000] [38200] [38400] [38600] [38800] [39000] [39200] [39400] [39600] [39800] [40000] [40200] [40400] [40600] [40800] [41000] [41200] [41400] [41600] [41800] [42000] [42200] [42400] [42600] [42800] [43000] [43200] [43400] [43600] [43800] [44000] [44200] [44400] [44600] [44800] [45000] [45200] [45400] [45600] [45800] [46000] [46200] [46400] [46600] [46800] [47000] [47200] [47400] [47600] [47800] [48000] [48200] [48400] [48600] [48800] [49000] [49200] [49400] [49600] [49800] [50000] [50200] [50400] [50600] [50800] [51000] [51200] [51400] [51600] [51800] [52000] [52200] [52400] [52600] [52800] [53000] [53200] [53400] [53600] [53800] [54000] [54200] [54400] [54600] [54800] [55000] [55200] [55400] [55600] [55800] [56000] [56200] [56400] [56600] [56800] [57000] [57200] [57400] [57600] [57800] [58000] [58200] [58400] [58600] [58800] [59000] [59200] [59400] [59600] [59800] [60000] [60200] [60400] [60600] [60800] [61000] [61200] [61400] [61600] [61800] [62000] [62200] [62400] [62600] [62800] [63000] [63200] [63400] [63600] [63800] [64000] [64200] [64400] [64600] [64800] [65000] [65200] [65400] [65600] [65800] [66000] [66200] [66400] [66600] [66800] [67000] [67200] [67400] [67600] [67800] [68000] [68200] [68400] [68600] [68800] [69000] [69200] [69400] [69600] [69800] [70000] [70200] [70400] [70600] [70800] [71000] [71200] [71400] [71600] [71800] [72000] [72200] [72400] [72600] [72800] [73000] [73200] [73400] [73600] [73800] [74000] [74200] [74400] [74600] [74800] [75000] [75200] [75400] [75600] [75800] [76000] [76200] [76400] [76600] [76800] [77000] [77200] [77400] [77600] [77800] [78000] [78200] [78400] [78600] [78800] [79000] [79200] [79400] [79600] [79800] [80000] [80200] [80400] [80600] [80800] [81000] [81200] [81400] [81600] [81800] [82000] [82200] [82400] [82600] [82800] [83000] [83200] [83400] [83600] [83800] [84000] [84200] [84400] [84600] [84800] [85000] [85200] [85400] [85600] [85800] [86000] [86200] [86400] [86600] [86800] [87000] [87200] [87400] [87600] [87800] [88000] [88200] [88400] [88600] [88800] [89000] [89200] [89400] [89600] [89800] [90000] [90200] [90400] [90600] [90800] [91000] [91200] [91400] [91600] [91800] [92000] [92200] [92400] [92600] [92800] [93000] [93200] [93400] [93600] [93800] [94000] [94200] [94400] [94600] [94800] [95000] [95200] [95400] [95600] [95800] [96000] [96200] [96400] [96600] [96800] [97000] [97200] [97400] [97600] [97800] [98000] [98200] [98400] [98600] [98800] [99000] [99200] [99400] [99600] [99800] [100000] [100200] [100400] [100600] [100800] [101000] [101200] [101400] [101600] [101800] [102000] [102200] [102400] [102600] [102800] [103000] [103200] [103400] [103600] [103800] [104000] [104200] [104400] [104600] [104800] [105000] [105200] [105400] [105600] [105800] [106000] [106200] [106400] [106600] [106800] [107000] [107200] [107400] [107600] [107800] [108000] [108200] [108400] [108600] [108800] [109000] [109200] [109400] [109600] [109800] [110000] [110200] [110400] [110600] [110800] [111000] [111200] [111400] [111600] [111800] [112000] [112200] [112400] [112600] [112800] [113000] [113200] [113400] [113600] [113800] [114000] [114200] [114400] [114600] [114800] [115000] [115200] [115400] [115600] [115800] [116000] [116200] [116400] [116600] [116800] [117000] [117200] [117400] [117600] [117800] [118000] [118200] [118400] [118600] [118800] [119000] [119200] [119400] [119600] [119800] [120000] [120200] [120400] [120600] [120800] [121000] [121200] [121400] [121600] [121800] [122000] [122200] [122400] [122600] [122800] [123000] [123200] [123400] [123600] [123800] [124000] [124200] [124400] [124600] [124800] [125000] [125200] [125400] [125600] [125800] [126000] [126200] [126400] [126600] [126800] [127000] [127200] [127400] [127600] [127800] [128000] [128200] [128400] [128600] [128800] [129000] [129200] [129400] [129600] [129800] [130000] [130200] [130400] [130600] [130800] [131000] [131200] [131400] [131600] [131800] [132000] [132200] [132400] [132600] [132800] [133000] [133200] [133400] [133600] [133800] [134000] [134200] [134400] [134600] [134800] [135000] [135200] [135400] [135600] [135800] [136000] [136200] [136400] [136600] [136800] [137000] [137200] [137400] [137600] [137800] [138000] [138200] [138400] [138600] [138800] [139000] [139200] [139400] [139600] [139800] [140000] [140200] [140400] [140600] [140800] [141000] [141200] [141400] [141600] [141800] [142000] [142200] [142400] [142600] [142800] [143000] [143200] [143400] [143600] [143800] [144000] [144200] [144400] [144600] [144800] [145000] [145200] [145400] [145600] [145800] [146000] [146200] [146400] [146600] [146800] [147000] [147200] [147400] [147600] [147800] [148000] [148200] [148400] [148600] [148800] [149000] [149200] [149400] [149600] [149800] [150000] [150200] [150400] [150600] [150800] [151000] [151200] [151400] [151600] [151800] [152000] [152200] [152400] [152600] [152800] [153000] [153200] [153400] [153600] [153800] [154000] [154200] [154400] [154600] [154800] [155000] [155200] [155400] [155600] [155800] [156000] [156200] [156400] [156600] [156800] [157000] [157200] [157400] [157600] [157800] [158000] [158200] [158400] [158600] [158800] [159000] [159200] [159400] [159600] [159800] [160000] [160200] [160400] [160600] [160800] [161000] [161200] [161400] [161600] [161800] [162000] [162200] [162400] [162600] [162800] [163000] [163200] [163400] [163600] [163800] [164000] [164200] [164400] [164600]
 
  The service has been written by
Heinrich Stamerjohanns